Time,TemperatureF,DewpointF,PressureIn,WindDirection,WindDirectionDegrees,WindSpeedMPH,WindSpeedGustMPH,Humidity,HourlyPrecipIn,Conditions,Clouds,dailyrainin,SoftwareType,DateUTC
2013-08-23 00:01:00,66.0,65.4,29.39,SSE,157,0.0,5.0,98,0.00,,,0.00,Weather View 32 v70,2013-08-23 04:01:00,
2013-08-23 00:02:00,66.0,65.4,29.39,SSE,157,0.0,5.0,98,0.00,,,0.00,Weather View 32 v70,2013-08-23 04:02:00,
2013-08-23 00:07:00,65.9,65.3,29.39,South,180,2.0,5.0,98,0.00,,,0.00,Weather View 32 v70,2013-08-23 04:07:00,
2013-08-23 00:12:00,65.9,65.0,29.39,SSE,157,3.0,5.0,97,0.00,,,0.00,Weather View 32 v70,2013-08-23 04:12:00,
2013-08-23 00:17:00,66.0,65.1,29.39,SSE,157,2.0,4.0,97,0.00,,,0.00,Weather View 32 v70,2013-08-23 04:17:00,
2013-08-23 00:22:00,65.8,64.9,29.39,South,180,0.0,4.0,97,0.00,,,0.00,Weather View 32 v70,2013-08-23 04:22:00,
2013-08-23 00:27:00,65.6,64.7,29.40,SSW,202,0.0,4.0,97,0.00,,,0.00,Weather View 32 v70,2013-08-23 04:27:00,
2013-08-23 00:32:00,66.0,63.6,29.40,WNW,292,0.0,7.0,92,0.00,,,0.00,Weather View 32 v70,2013-08-23 04:32:00,
2013-08-23 00:37:00,66.6,64.2,29.41,WNW,292,0.0,10.0,92,0.00,,,0.00,Weather View 32 v70,2013-08-23 04:37:00,
2013-08-23 00:42:00,66.4,64.9,29.41,WNW,292,1.0,10.0,95,0.00,,,0.00,Weather View 32 v70,2013-08-23 04:42:00,
2013-08-23 00:47:00,66.4,65.2,29.41,SSW,202,1.0,10.0,96,0.00,,,0.00,Weather View 32 v70,2013-08-23 04:47:00,
2013-08-23 00:52:00,66.2,65.3,29.41,SSW,202,1.0,10.0,97,0.00,,,0.00,Weather View 32 v70,2013-08-23 04:52:00,
2013-08-23 00:57:00,65.8,64.9,29.41,SSW,202,0.0,10.0,97,0.00,,,0.00,Weather View 32 v70,2013-08-23 04:57:00,
2013-08-23 01:02:00,65.4,64.8,29.41,WNW,292,1.0,10.0,98,0.00,,,0.00,Weather View 32 v70,2013-08-23 05:02:00,
2013-08-23 01:07:00,65.4,64.8,29.41,West,270,0.0,10.0,98,0.00,,,0.00,Weather View 32 v70,2013-08-23 05:07:00,
2013-08-23 01:12:00,65.3,65.0,29.41,West,270,0.0,10.0,99,0.00,,,0.00,Weather View 32 v70,2013-08-23 05:12:00,
2013-08-23 01:17:00,65.0,64.7,29.41,South,180,0.0,10.0,99,0.00,,,0.00,Weather View 32 v70,2013-08-23 05:17:00,
2013-08-23 01:22:00,64.6,64.0,29.41,SSW,202,0.0,10.0,98,0.00,,,0.00,Weather View 32 v70,2013-08-23 05:22:00,
2013-08-23 01:27:00,64.2,63.6,29.41,SSW,202,0.0,10.0,98,0.00,,,0.00,Weather View 32 v70,2013-08-23 05:27:00,
2013-08-23 01:32:00,63.7,63.4,29.41,SW,225,0.0,10.0,99,0.00,,,0.00,Weather View 32 v70,2013-08-23 05:32:00,
2013-08-23 01:37:00,63.4,63.1,29.41,SW,225,0.0,10.0,99,0.00,,,0.00,Weather View 32 v70,2013-08-23 05:37:00,
2013-08-23 01:42:00,63.3,63.0,29.41,WSW,247,1.0,10.0,99,0.00,,,0.00,Weather View 32 v70,2013-08-23 05:42:00,
2013-08-23 01:47:00,63.4,63.1,29.41,West,270,0.0,7.0,99,0.00,,,0.00,Weather View 32 v70,2013-08-23 05:47:00,
2013-08-23 01:52:00,63.6,63.3,29.41,WSW,247,0.0,7.0,99,0.00,,,0.00,Weather View 32 v70,2013-08-23 05:52:00,
2013-08-23 01:57:00,63.6,63.3,29.41,WSW,247,0.0,7.0,99,0.00,,,0.00,Weather View 32 v70,2013-08-23 05:57:00,
2013-08-23 02:02:00,63.6,63.0,29.41,WNW,292,1.0,7.0,98,0.00,,,0.00,Weather View 32 v70,2013-08-23 06:02:00,
2013-08-23 02:07:00,63.8,62.9,29.41,WSW,247,0.0,9.0,97,0.00,,,0.00,Weather View 32 v70,2013-08-23 06:07:00,
2013-08-23 02:12:00,63.9,63.0,29.41,WSW,247,0.0,9.0,97,0.00,,,0.00,Weather View 32 v70,2013-08-23 06:12:00,
2013-08-23 02:17:00,63.9,62.7,29.41,NNW,337,0.0,9.0,96,0.00,,,0.00,Weather View 32 v70,2013-08-23 06:17:00,
2013-08-23 02:22:00,63.9,62.7,29.41,SW,225,0.0,9.0,96,0.00,,,0.00,Weather View 32 v70,2013-08-23 06:22:00,
2013-08-23 02:27:00,63.7,62.5,29.41,SW,225,0.0,9.0,96,0.00,,,0.00,Weather View 32 v70,2013-08-23 06:27:00,
2013-08-23 02:32:00,63.4,62.2,29.41,WSW,247,0.0,9.0,96,0.00,,,0.00,Weather View 32 v70,2013-08-23 06:32:00,
2013-08-23 02:37:00,63.4,62.2,29.41,SW,225,0.0,9.0,96,0.00,,,0.00,Weather View 32 v70,2013-08-23 06:37:00,
2013-08-23 02:42:00,63.1,62.2,29.41,SSW,202,0.0,9.0,97,0.00,,,0.00,Weather View 32 v70,2013-08-23 06:42:00,
2013-08-23 02:47:00,62.8,61.9,29.41,South,180,0.0,9.0,97,0.00,,,0.00,Weather View 32 v70,2013-08-23 06:47:00,
2013-08-23 02:52:00,62.4,61.5,29.41,SSW,202,0.0,9.0,97,0.00,,,0.00,Weather View 32 v70,2013-08-23 06:52:00,
2013-08-23 02:57:00,62.4,61.5,29.42,SSW,202,3.0,9.0,97,0.00,,,0.00,Weather View 32 v70,2013-08-23 06:57:00,
2013-08-23 03:02:00,62.2,61.3,29.42,SSW,202,3.0,9.0,97,0.00,,,0.00,Weather View 32 v70,2013-08-23 07:02:00,
2013-08-23 03:07:00,62.2,61.6,29.42,SSW,202,1.0,9.0,98,0.00,,,0.00,Weather View 32 v70,2013-08-23 07:07:00,
2013-08-23 03:12:00,62.2,61.6,29.42,SSW,202,2.0,9.0,98,0.00,,,0.00,Weather View 32 v70,2013-08-23 07:12:00,
2013-08-23 03:17:00,62.2,61.6,29.42,SSW,202,0.0,6.0,98,0.00,,,0.00,Weather View 32 v70,2013-08-23 07:17:00,
2013-08-23 03:22:00,62.3,61.4,29.42,SSW,202,0.0,6.0,97,0.00,,,0.00,Weather View 32 v70,2013-08-23 07:22:00,
2013-08-23 03:27:00,61.9,61.3,29.42,SSW,202,2.0,6.0,98,0.00,,,0.00,Weather View 32 v70,2013-08-23 07:27:00,
2013-08-23 03:32:00,61.9,61.6,29.42,WSW,247,0.0,4.0,99,0.00,,,0.00,Weather View 32 v70,2013-08-23 07:32:00,
2013-08-23 03:38:00,62.0,61.7,29.42,WSW,247,1.0,4.0,99,0.00,,,0.00,Weather View 32 v70,2013-08-23 07:38:00,
2013-08-23 03:43:00,62.2,61.9,29.42,WNW,292,0.0,5.0,99,0.00,,,0.00,Weather View 32 v70,2013-08-23 07:43:00,
2013-08-23 03:48:00,62.4,61.8,29.42,SW,225,0.0,5.0,98,0.00,,,0.00,Weather View 32 v70,2013-08-23 07:48:00,
2013-08-23 03:53:00,62.2,61.6,29.42,SW,225,0.0,5.0,98,0.00,,,0.00,Weather View 32 v70,2013-08-23 07:53:00,
2013-08-23 03:58:00,62.2,61.6,29.42,WSW,247,2.0,5.0,98,0.00,,,0.00,Weather View 32 v70,2013-08-23 07:58:00,
2013-08-23 04:03:00,62.2,61.6,29.42,SW,225,0.0,5.0,98,0.00,,,0.00,Weather View 32 v70,2013-08-23 08:03:00,
2013-08-23 04:08:00,62.1,61.5,29.42,SSW,202,1.0,5.0,98,0.00,,,0.00,Weather View 32 v70,2013-08-23 08:08:00,
2013-08-23 04:13:00,61.8,61.2,29.42,SSW,202,1.0,5.0,98,0.00,,,0.00,Weather View 32 v70,2013-08-23 08:13:00,
2013-08-23 04:18:00,61.6,61.0,29.42,SSE,157,1.0,5.0,98,0.00,,,0.00,Weather View 32 v70,2013-08-23 08:18:00,
2013-08-23 04:23:00,61.5,60.9,29.42,SSE,157,2.0,5.0,98,0.00,,,0.00,Weather View 32 v70,2013-08-23 08:23:00,
2013-08-23 04:28:00,61.3,60.7,29.42,SSE,157,0.0,5.0,98,0.00,,,0.00,Weather View 32 v70,2013-08-23 08:28:00,
2013-08-23 04:33:00,61.2,60.6,29.42,South,180,0.0,5.0,98,0.00,,,0.00,Weather View 32 v70,2013-08-23 08:33:00,
2013-08-23 04:38:00,61.1,60.8,29.42,SSE,157,0.0,5.0,99,0.00,,,0.00,Weather View 32 v70,2013-08-23 08:38:00,
2013-08-23 04:43:00,61.0,60.7,29.42,SSE,157,0.0,5.0,99,0.00,,,0.00,Weather View 32 v70,2013-08-23 08:43:00,
2013-08-23 04:48:00,60.7,60.1,29.43,SSE,157,0.0,4.0,98,0.00,,,0.00,Weather View 32 v70,2013-08-23 08:48:00,
2013-08-23 04:53:00,60.7,60.1,29.43,SSE,157,0.0,4.0,98,0.00,,,0.00,Weather View 32 v70,2013-08-23 08:53:00,
2013-08-23 04:58:00,60.3,59.7,29.43,South,180,0.0,4.0,98,0.00,,,0.00,Weather View 32 v70,2013-08-23 08:58:00,
2013-08-23 05:03:00,60.3,59.7,29.43,South,180,0.0,4.0,98,0.00,,,0.00,Weather View 32 v70,2013-08-23 09:03:00,
2013-08-23 05:08:00,60.4,59.8,29.43,SW,225,0.0,4.0,98,0.00,,,0.00,Weather View 32 v70,2013-08-23 09:08:00,
2013-08-23 05:13:00,60.4,59.8,29.43,SE,135,0.0,4.0,98,0.00,,,0.00,Weather View 32 v70,2013-08-23 09:13:00,
2013-08-23 05:18:00,60.4,59.8,29.43,South,180,0.0,4.0,98,0.00,,,0.00,Weather View 32 v70,2013-08-23 09:18:00,
2013-08-23 05:23:00,60.2,59.3,29.43,South,180,0.0,4.0,97,0.00,,,0.00,Weather View 32 v70,2013-08-23 09:23:00,
2013-08-23 05:28:00,59.7,59.1,29.43,South,180,0.0,4.0,98,0.00,,,0.00,Weather View 32 v70,2013-08-23 09:28:00,
2013-08-23 05:33:00,59.7,59.1,29.43,SSE,157,0.0,4.0,98,0.00,,,0.00,Weather View 32 v70,2013-08-23 09:33:00,
2013-08-23 05:38:00,60.2,60.2,29.43,SE,135,0.0,4.0,100,0.00,,,0.00,Weather View 32 v70,2013-08-23 09:38:00,
2013-08-23 05:43:00,60.2,59.9,29.44,SSE,157,0.0,4.0,99,0.00,,,0.00,Weather View 32 v70,2013-08-23 09:43:00,
2013-08-23 05:48:00,60.1,59.8,29.44,South,180,0.0,4.0,99,0.00,,,0.00,Weather View 32 v70,2013-08-23 09:48:00,
2013-08-23 05:53:00,60.0,59.7,29.44,SSW,202,0.0,4.0,99,0.00,,,0.00,Weather View 32 v70,2013-08-23 09:53:00,
2013-08-23 05:58:00,60.1,59.8,29.44,ESE,112,0.0,4.0,99,0.00,,,0.00,Weather View 32 v70,2013-08-23 09:58:00,
2013-08-23 06:03:00,60.1,59.8,29.44,NNW,337,0.0,2.0,99,0.00,,,0.00,Weather View 32 v70,2013-08-23 10:03:00,
2013-08-23 06:08:00,60.2,59.9,29.45,NNW,337,0.0,5.0,99,0.00,,,0.00,Weather View 32 v70,2013-08-23 10:08:00,
2013-08-23 06:13:00,60.3,60.0,29.45,SSW,202,0.0,5.0,99,0.00,,,0.00,Weather View 32 v70,2013-08-23 10:13:00,
2013-08-23 06:18:00,60.2,59.9,29.45,NW,315,0.0,5.0,99,0.00,,,0.00,Weather View 32 v70,2013-08-23 10:18:00,
2013-08-23 06:23:00,60.2,59.9,29.45,WNW,292,0.0,5.0,99,0.00,,,0.00,Weather View 32 v70,2013-08-23 10:23:00,
2013-08-23 06:28:00,60.2,59.9,29.45,WSW,247,0.0,5.0,99,0.00,,,0.00,Weather View 32 v70,2013-08-23 10:28:00,
2013-08-23 06:33:00,60.4,60.1,29.45,WNW,292,0.0,7.0,99,0.00,,,0.00,Weather View 32 v70,2013-08-23 10:33:00,
2013-08-23 06:38:00,60.7,60.1,29.46,WNW,292,3.0,7.0,98,0.00,,,0.00,Weather View 32 v70,2013-08-23 10:38:00,
2013-08-23 06:43:00,60.9,60.3,29.46,WNW,292,6.0,7.0,98,0.00,,,0.00,Weather View 32 v70,2013-08-23 10:43:00,
2013-08-23 06:48:00,61.7,61.1,29.46,WNW,292,6.0,7.0,98,0.00,,,0.00,Weather View 32 v70,2013-08-23 10:48:00,
2013-08-23 06:53:00,62.8,61.6,29.46,WNW,292,0.0,7.0,96,0.00,,,0.00,Weather View 32 v70,2013-08-23 10:53:00,
2013-08-23 06:58:00,63.8,62.0,29.47,West,270,2.0,7.0,94,0.00,,,0.00,Weather View 32 v70,2013-08-23 10:58:00,
2013-08-23 07:03:00,63.2,60.2,29.47,NW,315,2.0,7.0,90,0.00,,,0.00,Weather View 32 v70,2013-08-23 11:03:00,
2013-08-23 07:08:00,63.0,60.3,29.47,NW,315,2.0,7.0,91,0.00,,,0.00,Weather View 32 v70,2013-08-23 11:08:00,
2013-08-23 07:13:00,63.1,60.1,29.48,NW,315,3.0,7.0,90,0.00,,,0.00,Weather View 32 v70,2013-08-23 11:13:00,
2013-08-23 07:18:00,63.1,59.5,29.48,NW,315,3.0,7.0,88,0.00,,,0.00,Weather View 32 v70,2013-08-23 11:18:00,
2013-08-23 07:23:00,62.9,59.3,29.48,WNW,292,7.0,7.0,88,0.00,,,0.00,Weather View 32 v70,2013-08-23 11:23:00,
2013-08-23 07:28:00,62.6,59.3,29.49,WNW,292,11.0,11.0,89,0.00,,,0.00,Weather View 32 v70,2013-08-23 11:28:00,
2013-08-23 07:33:00,62.4,59.1,29.49,NW,315,6.0,11.0,89,0.00,,,0.00,Weather View 32 v70,2013-08-23 11:33:00,
2013-08-23 07:38:00,62.3,59.3,29.49,NW,315,3.0,11.0,90,0.00,,,0.00,Weather View 32 v70,2013-08-23 11:38:00,
2013-08-23 07:43:00,62.2,59.5,29.49,NNW,337,0.0,11.0,91,0.00,,,0.00,Weather View 32 v70,2013-08-23 11:43:00,
2013-08-23 07:48:00,62.2,59.5,29.49,NW,315,2.0,11.0,91,0.00,,,0.00,Weather View 32 v70,2013-08-23 11:48:00,
2013-08-23 07:53:00,62.3,59.6,29.50,NW,315,6.0,11.0,91,0.00,,,0.00,Weather View 32 v70,2013-08-23 11:53:00,
2013-08-23 07:58:00,62.4,59.7,29.50,NW,315,1.0,11.0,91,0.00,,,0.00,Weather View 32 v70,2013-08-23 11:58:00,
2013-08-23 08:03:00,62.4,60.0,29.50,WNW,292,4.0,11.0,92,0.00,,,0.00,Weather View 32 v70,2013-08-23 12:03:00,
2013-08-23 08:08:00,62.6,60.2,29.50,WNW,292,7.0,11.0,92,0.00,,,0.00,Weather View 32 v70,2013-08-23 12:08:00,
2013-08-23 08:13:00,62.7,59.4,29.50,WNW,292,4.0,11.0,89,0.00,,,0.00,Weather View 32 v70,2013-08-23 12:13:00,
2013-08-23 08:18:00,62.8,59.8,29.51,NW,315,5.0,11.0,90,0.00,,,0.00,Weather View 32 v70,2013-08-23 12:18:00,
2013-08-23 08:23:00,63.2,60.2,29.51,West,270,7.0,11.0,90,0.00,,,0.00,Weather View 32 v70,2013-08-23 12:23:00,
2013-08-23 08:28:00,63.0,59.7,29.51,NW,315,9.0,12.0,89,0.00,,,0.00,Weather View 32 v70,2013-08-23 12:28:00,
2013-08-23 08:33:00,62.9,59.6,29.51,NNW,337,3.0,12.0,89,0.00,,,0.00,Weather View 32 v70,2013-08-23 12:33:00,
2013-08-23 08:38:00,62.7,59.7,29.51,NNW,337,1.0,12.0,90,0.00,,,0.00,Weather View 32 v70,2013-08-23 12:38:00,
2013-08-23 08:43:00,62.5,59.2,29.51,NNW,337,1.0,12.0,89,0.00,,,0.00,Weather View 32 v70,2013-08-23 12:43:00,
2013-08-23 08:48:00,62.4,59.7,29.52,NNW,337,2.0,12.0,91,0.00,,,0.00,Weather View 32 v70,2013-08-23 12:48:00,
2013-08-23 08:53:00,62.4,59.1,29.52,NW,315,7.0,15.0,89,0.00,,,0.00,Weather View 32 v70,2013-08-23 12:53:00,
2013-08-23 08:58:00,62.4,59.1,29.52,NNW,337,4.0,15.0,89,0.00,,,0.00,Weather View 32 v70,2013-08-23 12:58:00,
2013-08-23 09:03:00,62.4,59.1,29.52,NW,315,5.0,15.0,89,0.00,,,0.00,Weather View 32 v70,2013-08-23 13:03:00,
2013-08-23 09:08:00,62.6,59.3,29.52,NNW,337,4.0,15.0,89,0.00,,,0.00,Weather View 32 v70,2013-08-23 13:08:00,
2013-08-23 09:13:00,62.8,59.2,29.53,WNW,292,2.0,15.0,88,0.00,,,0.00,Weather View 32 v70,2013-08-23 13:13:00,
2013-08-23 09:18:00,63.0,59.4,29.53,NW,315,4.0,15.0,88,0.00,,,0.00,Weather View 32 v70,2013-08-23 13:18:00,
2013-08-23 09:23:00,62.8,58.5,29.53,NNW,337,4.0,15.0,86,0.00,,,0.00,Weather View 32 v70,2013-08-23 13:23:00,
2013-08-23 09:28:00,62.9,59.0,29.54,NNW,337,11.0,15.0,87,0.00,,,0.00,Weather View 32 v70,2013-08-23 13:28:00,
2013-08-23 09:33:00,62.8,58.2,29.54,NNW,337,4.0,15.0,85,0.00,,,0.00,Weather View 32 v70,2013-08-23 13:33:00,
2013-08-23 09:38:00,62.8,58.2,29.54,NW,315,8.0,15.0,85,0.00,,,0.00,Weather View 32 v70,2013-08-23 13:38:00,
2013-08-23 09:43:00,62.7,57.4,29.54,NNW,337,6.0,16.0,83,0.00,,,0.00,Weather View 32 v70,2013-08-23 13:43:00,
2013-08-23 09:48:00,63.0,57.7,29.54,NNW,337,7.0,16.0,83,0.00,,,0.00,Weather View 32 v70,2013-08-23 13:48:00,
2013-08-23 09:53:00,63.1,57.5,29.55,NNW,337,1.0,16.0,82,0.00,,,0.00,Weather View 32 v70,2013-08-23 13:53:00,
2013-08-23 09:58:00,63.4,56.8,29.55,NNW,337,10.0,16.0,79,0.00,,,0.00,Weather View 32 v70,2013-08-23 13:58:00,
2013-08-23 10:03:00,63.8,56.1,29.55,NNW,337,9.0,16.0,76,0.00,,,0.00,Weather View 32 v70,2013-08-23 14:03:00,
2013-08-23 10:08:00,63.8,56.1,29.56,NW,315,6.0,16.0,76,0.00,,,0.00,Weather View 32 v70,2013-08-23 14:08:00,
2013-08-23 10:13:00,64.4,57.0,29.56,NNW,337,8.0,16.0,77,0.00,,,0.00,Weather View 32 v70,2013-08-23 14:13:00,
2013-08-23 10:18:00,64.9,55.6,29.56,NW,315,8.0,16.0,72,0.00,,,0.00,Weather View 32 v70,2013-08-23 14:18:00,
2013-08-23 10:23:00,65.2,54.3,29.56,NNW,337,10.0,20.0,68,0.01,,,0.01,Weather View 32 v70,2013-08-23 14:23:00,
2013-08-23 10:28:00,65.5,54.6,29.56,NNW,337,5.0,20.0,68,0.01,,,0.01,Weather View 32 v70,2013-08-23 14:28:00,
2013-08-23 10:33:00,65.9,55.0,29.56,NNW,337,9.0,20.0,68,0.01,,,0.01,Weather View 32 v70,2013-08-23 14:33:00,
2013-08-23 10:38:00,66.8,55.5,29.56,NW,315,7.0,20.0,67,0.01,,,0.01,Weather View 32 v70,2013-08-23 14:38:00,
2013-08-23 10:43:00,66.8,53.3,29.56,NNW,337,6.0,20.0,62,0.01,,,0.01,Weather View 32 v70,2013-08-23 14:43:00,
2013-08-23 10:48:00,66.7,53.7,29.57,NNW,337,8.0,20.0,63,0.01,,,0.01,Weather View 32 v70,2013-08-23 14:48:00,
2013-08-23 10:53:00,67.2,53.7,29.57,NNW,337,4.0,20.0,62,0.01,,,0.01,Weather View 32 v70,2013-08-23 14:53:00,
2013-08-23 10:58:00,67.4,53.4,29.57,NNW,337,7.0,20.0,61,0.01,,,0.01,Weather View 32 v70,2013-08-23 14:58:00,
2013-08-23 11:03:00,67.3,53.8,29.57,North,360,6.0,20.0,62,0.01,,,0.01,Weather View 32 v70,2013-08-23 15:03:00,
2013-08-23 11:08:00,67.1,53.2,29.58,NW,315,10.0,20.0,61,0.01,,,0.01,Weather View 32 v70,2013-08-23 15:08:00,
2013-08-23 11:13:00,66.8,53.3,29.58,NNW,337,6.0,20.0,62,0.01,,,0.01,Weather View 32 v70,2013-08-23 15:13:00,
2013-08-23 11:18:00,66.9,53.4,29.58,NNW,337,2.0,20.0,62,0.01,,,0.01,Weather View 32 v70,2013-08-23 15:18:00,
2013-08-23 11:23:00,67.2,54.1,29.58,NNW,337,13.0,20.0,63,0.00,,,0.01,Weather View 32 v70,2013-08-23 15:23:00,
2013-08-23 11:29:00,67.2,53.7,29.58,WNW,292,6.0,20.0,62,0.00,,,0.01,Weather View 32 v70,2013-08-23 15:29:00,
2013-08-23 11:34:00,67.4,53.4,29.58,NNW,337,9.0,17.0,61,0.00,,,0.01,Weather View 32 v70,2013-08-23 15:34:00,
2013-08-23 11:39:00,67.1,54.0,29.58,NNE,22,10.0,17.0,63,0.00,,,0.01,Weather View 32 v70,2013-08-23 15:39:00,
2013-08-23 11:44:00,67.6,54.1,29.58,North,360,7.0,17.0,62,0.00,,,0.01,Weather View 32 v70,2013-08-23 15:44:00,
2013-08-23 11:49:00,68.1,52.7,29.58,NNW,337,9.0,17.0,58,0.00,,,0.01,Weather View 32 v70,2013-08-23 15:49:00,
2013-08-23 11:54:00,67.8,52.9,29.58,NNW,337,13.0,17.0,59,0.00,,,0.01,Weather View 32 v70,2013-08-23 15:54:00,
2013-08-23 11:59:00,66.8,52.0,29.58,NNW,337,7.0,17.0,59,0.00,,,0.01,Weather View 32 v70,2013-08-23 15:59:00,
2013-08-23 12:04:00,66.9,52.1,29.59,WNW,292,7.0,17.0,59,0.00,,,0.01,Weather View 32 v70,2013-08-23 16:04:00,
2013-08-23 12:09:00,67.1,53.2,29.58,NNW,337,10.0,17.0,61,0.00,,,0.01,Weather View 32 v70,2013-08-23 16:09:00,
2013-08-23 12:14:00,67.4,52.5,29.59,NW,315,5.0,17.0,59,0.00,,,0.01,Weather View 32 v70,2013-08-23 16:14:00,
2013-08-23 12:19:00,67.9,53.5,29.59,NNW,337,7.0,17.0,60,0.00,,,0.01,Weather View 32 v70,2013-08-23 16:19:00,
2013-08-23 12:24:00,68.1,52.7,29.59,NW,315,3.0,17.0,58,0.00,,,0.01,Weather View 32 v70,2013-08-23 16:24:00,
2013-08-23 12:29:00,68.6,53.2,29.59,NW,315,12.0,17.0,58,0.00,,,0.01,Weather View 32 v70,2013-08-23 16:29:00,
2013-08-23 12:34:00,68.5,52.1,29.58,WNW,292,4.0,17.0,56,0.00,,,0.01,Weather View 32 v70,2013-08-23 16:34:00,
2013-08-23 12:39:00,68.4,52.5,29.59,NNW,337,8.0,19.0,57,0.00,,,0.01,Weather View 32 v70,2013-08-23 16:39:00,
2013-08-23 12:44:00,67.9,51.6,29.59,NW,315,4.0,19.0,56,0.00,,,0.01,Weather View 32 v70,2013-08-23 16:44:00,
2013-08-23 12:49:00,68.2,51.4,29.58,North,360,10.0,19.0,55,0.00,,,0.01,Weather View 32 v70,2013-08-23 16:49:00,
2013-08-23 12:54:00,68.6,52.2,29.58,NNW,337,10.0,19.0,56,0.00,,,0.01,Weather View 32 v70,2013-08-23 16:54:00,
2013-08-23 12:59:00,68.7,52.3,29.58,NNW,337,13.0,19.0,56,0.00,,,0.01,Weather View 32 v70,2013-08-23 16:59:00,
2013-08-23 13:04:00,68.7,50.3,29.58,NNE,22,6.0,19.0,52,0.00,,,0.01,Weather View 32 v70,2013-08-23 17:04:00,
2013-08-23 13:09:00,68.7,51.3,29.58,NNE,22,9.0,19.0,54,0.00,,,0.01,Weather View 32 v70,2013-08-23 17:09:00,
2013-08-23 13:14:00,68.9,51.5,29.58,NNE,22,0.0,19.0,54,0.00,,,0.01,Weather View 32 v70,2013-08-23 17:14:00,
2013-08-23 13:19:00,69.2,51.3,29.58,North,360,12.0,19.0,53,0.00,,,0.01,Weather View 32 v70,2013-08-23 17:19:00,
2013-08-23 13:24:00,68.7,51.8,29.58,NW,315,4.0,19.0,55,0.00,,,0.01,Weather View 32 v70,2013-08-23 17:24:00,
2013-08-23 13:29:00,69.4,49.4,29.58,NNE,22,6.0,19.0,49,0.00,,,0.01,Weather View 32 v70,2013-08-23 17:29:00,
2013-08-23 13:34:00,69.6,50.1,29.58,NNW,337,6.0,19.0,50,0.00,,,0.01,Weather View 32 v70,2013-08-23 17:34:00,
2013-08-23 13:39:00,69.6,49.5,29.58,NE,45,6.0,19.0,49,0.00,,,0.01,Weather View 32 v70,2013-08-23 17:39:00,
2013-08-23 13:44:00,69.7,50.2,29.58,North,360,6.0,19.0,50,0.00,,,0.01,Weather View 32 v70,2013-08-23 17:44:00,
2013-08-23 13:49:00,69.9,50.9,29.58,NNW,337,13.0,17.0,51,0.00,,,0.01,Weather View 32 v70,2013-08-23 17:49:00,
2013-08-23 13:54:00,70.4,52.4,29.58,NNE,22,6.0,17.0,53,0.00,,,0.01,Weather View 32 v70,2013-08-23 17:54:00,
2013-08-23 13:59:00,70.3,52.3,29.58,North,360,5.0,17.0,53,0.00,,,0.01,Weather View 32 v70,2013-08-23 17:59:00,
2013-08-23 14:04:00,70.5,50.9,29.58,North,360,9.0,17.0,50,0.00,,,0.01,Weather View 32 v70,2013-08-23 18:04:00,
2013-08-23 14:09:00,70.6,51.5,29.58,NNE,22,5.0,17.0,51,0.00,,,0.01,Weather View 32 v70,2013-08-23 18:09:00,
2013-08-23 14:14:00,70.9,51.8,29.58,NNE,22,7.0,17.0,51,0.00,,,0.01,Weather View 32 v70,2013-08-23 18:14:00,
2013-08-23 14:19:00,70.9,51.8,29.58,North,360,7.0,17.0,51,0.00,,,0.01,Weather View 32 v70,2013-08-23 18:19:00,
2013-08-23 14:24:00,70.8,52.3,29.58,North,360,10.0,17.0,52,0.00,,,0.01,Weather View 32 v70,2013-08-23 18:24:00,
2013-08-23 14:29:00,70.9,52.9,29.58,NE,45,11.0,17.0,53,0.00,,,0.01,Weather View 32 v70,2013-08-23 18:29:00,
2013-08-23 14:34:00,70.9,51.8,29.59,NNW,337,6.0,16.0,51,0.00,,,0.01,Weather View 32 v70,2013-08-23 18:34:00,
2013-08-23 14:39:00,71.4,52.3,29.58,NNE,22,7.0,16.0,51,0.00,,,0.01,Weather View 32 v70,2013-08-23 18:39:00,
2013-08-23 14:44:00,71.1,51.5,29.58,NNE,22,8.0,16.0,50,0.00,,,0.01,Weather View 32 v70,2013-08-23 18:44:00,
2013-08-23 14:49:00,70.9,51.8,29.59,North,360,3.0,15.0,51,0.00,,,0.01,Weather View 32 v70,2013-08-23 18:49:00,
2013-08-23 14:54:00,71.1,51.5,29.59,NNW,337,10.0,15.0,50,0.00,,,0.01,Weather View 32 v70,2013-08-23 18:54:00,
2013-08-23 14:59:00,71.0,51.9,29.59,NNE,22,6.0,16.0,51,0.00,,,0.01,Weather View 32 v70,2013-08-23 18:59:00,
2013-08-23 15:04:00,71.4,52.3,29.59,NNE,22,7.0,16.0,51,0.00,,,0.01,Weather View 32 v70,2013-08-23 19:04:00,
2013-08-23 15:09:00,71.5,51.8,29.59,NW,315,2.0,16.0,50,0.00,,,0.01,Weather View 32 v70,2013-08-23 19:09:00,
2013-08-23 15:15:00,71.9,52.2,29.59,NNE,22,4.0,16.0,50,0.00,,,0.01,Weather View 32 v70,2013-08-23 19:15:00,
2013-08-23 15:20:00,71.8,52.1,29.59,NE,45,6.0,16.0,50,0.00,,,0.01,Weather View 32 v70,2013-08-23 19:20:00,
2013-08-23 15:25:00,71.7,52.0,29.59,NNW,337,12.0,16.0,50,0.00,,,0.01,Weather View 32 v70,2013-08-23 19:25:00,
2013-08-23 15:30:00,71.6,51.4,29.59,NNE,22,9.0,16.0,49,0.00,,,0.01,Weather View 32 v70,2013-08-23 19:30:00,
2013-08-23 15:35:00,71.8,52.6,29.59,NNW,337,6.0,16.0,51,0.00,,,0.01,Weather View 32 v70,2013-08-23 19:35:00,
2013-08-23 15:40:00,72.4,52.1,29.59,North,360,12.0,16.0,49,0.00,,,0.01,Weather View 32 v70,2013-08-23 19:40:00,
2013-08-23 15:45:00,72.6,52.8,29.59,NNE,22,9.0,16.0,50,0.00,,,0.01,Weather View 32 v70,2013-08-23 19:45:00,
2013-08-23 15:50:00,72.3,52.0,29.60,NNE,22,10.0,16.0,49,0.00,,,0.01,Weather View 32 v70,2013-08-23 19:50:00,
2013-08-23 15:55:00,72.1,51.8,29.60,North,360,6.0,16.0,49,0.00,,,0.01,Weather View 32 v70,2013-08-23 19:55:00,
2013-08-23 16:00:00,72.2,51.9,29.60,ENE,67,5.0,16.0,49,0.00,,,0.01,Weather View 32 v70,2013-08-23 20:00:00,
2013-08-23 16:05:00,72.2,51.9,29.60,North,360,11.0,16.0,49,0.00,,,0.01,Weather View 32 v70,2013-08-23 20:05:00,
2013-08-23 16:10:00,72.2,52.5,29.59,North,360,9.0,16.0,50,0.00,,,0.01,Weather View 32 v70,2013-08-23 20:10:00,
2013-08-23 16:15:00,72.4,52.1,29.60,North,360,8.0,16.0,49,0.00,,,0.01,Weather View 32 v70,2013-08-23 20:15:00,
2013-08-23 16:20:00,72.4,53.2,29.60,NNW,337,7.0,15.0,51,0.00,,,0.01,Weather View 32 v70,2013-08-23 20:20:00,
2013-08-23 16:25:00,72.1,51.8,29.60,NNE,22,11.0,15.0,49,0.00,,,0.01,Weather View 32 v70,2013-08-23 20:25:00,
2013-08-23 16:30:00,71.8,52.1,29.60,NNE,22,10.0,15.0,50,0.00,,,0.01,Weather View 32 v70,2013-08-23 20:30:00,
2013-08-23 16:35:00,72.0,51.7,29.60,ENE,67,1.0,15.0,49,0.00,,,0.01,Weather View 32 v70,2013-08-23 20:35:00,
2013-08-23 16:40:00,72.1,51.8,29.60,ENE,67,8.0,15.0,49,0.00,,,0.01,Weather View 32 v70,2013-08-23 20:40:00,
2013-08-23 16:45:00,72.2,51.4,29.61,North,360,5.0,16.0,48,0.00,,,0.01,Weather View 32 v70,2013-08-23 20:45:00,
2013-08-23 16:50:00,72.1,51.3,29.60,NNW,337,6.0,16.0,48,0.00,,,0.01,Weather View 32 v70,2013-08-23 20:50:00,
2013-08-23 16:55:00,71.8,51.0,29.61,NNE,22,8.0,16.0,48,0.00,,,0.01,Weather View 32 v70,2013-08-23 20:55:00,
2013-08-23 17:00:00,72.2,50.2,29.61,NW,315,7.0,16.0,46,0.00,,,0.01,Weather View 32 v70,2013-08-23 21:00:00,
2013-08-23 17:05:00,72.5,50.5,29.61,NNW,337,9.0,16.0,46,0.00,,,0.01,Weather View 32 v70,2013-08-23 21:05:00,
2013-08-23 17:10:00,72.8,50.8,29.61,NNE,22,9.0,16.0,46,0.00,,,0.01,Weather View 32 v70,2013-08-23 21:10:00,
2013-08-23 17:15:00,73.0,50.3,29.61,NW,315,1.0,16.0,45,0.00,,,0.01,Weather View 32 v70,2013-08-23 21:15:00,
2013-08-23 17:20:00,73.1,51.6,29.61,NE,45,5.0,16.0,47,0.00,,,0.01,Weather View 32 v70,2013-08-23 21:20:00,
2013-08-23 17:25:00,72.9,50.8,29.61,NNE,22,4.0,16.0,46,0.00,,,0.01,Weather View 32 v70,2013-08-23 21:25:00,
2013-08-23 17:30:00,72.9,50.8,29.61,ENE,67,2.0,16.0,46,0.00,,,0.01,Weather View 32 v70,2013-08-23 21:30:00,
2013-08-23 17:35:00,72.4,50.4,29.61,North,360,3.0,16.0,46,0.00,,,0.01,Weather View 32 v70,2013-08-23 21:35:00,
2013-08-23 17:40:00,72.2,50.2,29.62,NNW,337,5.0,16.0,46,0.00,,,0.01,Weather View 32 v70,2013-08-23 21:40:00,
2013-08-23 17:45:00,71.9,50.5,29.62,NW,315,1.0,16.0,47,0.00,,,0.01,Weather View 32 v70,2013-08-23 21:45:00,
2013-08-23 17:50:00,71.8,50.4,29.62,NW,315,4.0,13.0,47,0.00,,,0.01,Weather View 32 v70,2013-08-23 21:50:00,
2013-08-23 17:55:00,71.7,50.9,29.62,NNE,22,5.0,13.0,48,0.00,,,0.01,Weather View 32 v70,2013-08-23 21:55:00,
2013-08-23 18:00:00,71.8,51.0,29.62,NNW,337,2.0,13.0,48,0.00,,,0.01,Weather View 32 v70,2013-08-23 22:00:00,
2013-08-23 18:05:00,71.2,51.0,29.62,NE,45,7.0,13.0,49,0.00,,,0.01,Weather View 32 v70,2013-08-23 22:05:00,
2013-08-23 18:10:00,71.1,50.9,29.62,NNE,22,8.0,13.0,49,0.00,,,0.01,Weather View 32 v70,2013-08-23 22:10:00,
2013-08-23 18:15:00,70.9,50.7,29.62,NNE,22,5.0,13.0,49,0.00,,,0.01,Weather View 32 v70,2013-08-23 22:15:00,
2013-08-23 18:20:00,70.7,50.5,29.62,ENE,67,1.0,13.0,49,0.00,,,0.01,Weather View 32 v70,2013-08-23 22:20:00,
2013-08-23 18:25:00,71.1,50.9,29.62,NE,45,6.0,13.0,49,0.00,,,0.01,Weather View 32 v70,2013-08-23 22:25:00,
2013-08-23 18:30:00,70.8,50.6,29.62,NNE,22,4.0,13.0,49,0.00,,,0.01,Weather View 32 v70,2013-08-23 22:30:00,
2013-08-23 18:35:00,70.9,50.7,29.62,NNE,22,3.0,13.0,49,0.00,,,0.01,Weather View 32 v70,2013-08-23 22:35:00,
2013-08-23 18:40:00,70.9,50.7,29.62,ENE,67,2.0,13.0,49,0.00,,,0.01,Weather View 32 v70,2013-08-23 22:40:00,
2013-08-23 18:45:00,70.8,50.6,29.62,North,360,1.0,13.0,49,0.00,,,0.01,Weather View 32 v70,2013-08-23 22:45:00,
2013-08-23 18:50:00,70.8,50.6,29.62,NNE,22,5.0,13.0,49,0.00,,,0.01,Weather View 32 v70,2013-08-23 22:50:00,
2013-08-23 18:55:00,70.4,50.8,29.62,NNW,337,0.0,13.0,50,0.00,,,0.01,Weather View 32 v70,2013-08-23 22:55:00,
2013-08-23 19:00:00,70.6,51.0,29.62,NW,315,0.0,13.0,50,0.00,,,0.01,Weather View 32 v70,2013-08-23 23:00:00,
2013-08-23 19:05:00,70.7,51.6,29.62,NNE,22,0.0,12.0,51,0.00,,,0.01,Weather View 32 v70,2013-08-23 23:05:00,
2013-08-23 19:10:00,70.6,51.0,29.62,North,360,0.0,12.0,50,0.00,,,0.01,Weather View 32 v70,2013-08-23 23:10:00,
2013-08-23 19:15:00,70.4,51.4,29.62,North,360,0.0,12.0,51,0.00,,,0.01,Weather View 32 v70,2013-08-23 23:15:00,
2013-08-23 19:20:00,69.8,50.8,29.63,SE,135,0.0,12.0,51,0.00,,,0.01,Weather View 32 v70,2013-08-23 23:20:00,
2013-08-23 19:25:00,68.8,51.4,29.63,SE,135,0.0,12.0,54,0.00,,,0.01,Weather View 32 v70,2013-08-23 23:25:00,
2013-08-23 19:30:00,68.0,51.2,29.62,SSE,157,0.0,12.0,55,0.00,,,0.01,Weather View 32 v70,2013-08-23 23:30:00,
2013-08-23 19:35:00,66.8,50.1,29.63,SSE,157,0.0,10.0,55,0.00,,,0.01,Weather View 32 v70,2013-08-23 23:35:00,
2013-08-23 19:40:00,65.2,50.0,29.62,SSE,157,4.0,10.0,58,0.00,,,0.01,Weather View 32 v70,2013-08-23 23:40:00,
2013-08-23 19:45:00,64.6,50.8,29.62,SSE,157,1.0,10.0,61,0.00,,,0.01,Weather View 32 v70,2013-08-23 23:45:00,
2013-08-23 19:50:00,63.7,50.4,29.63,SSE,157,1.0,10.0,62,0.00,,,0.01,Weather View 32 v70,2013-08-23 23:50:00,
2013-08-23 19:55:00,63.3,50.5,29.62,SSE,157,0.0,10.0,63,0.00,,,0.01,Weather View 32 v70,2013-08-23 23:55:00,
2013-08-23 20:01:00,63.2,51.2,29.62,SE,135,3.0,10.0,65,0.00,,,0.01,Weather View 32 v70,2013-08-24 00:01:00,
2013-08-23 20:06:00,62.6,50.6,29.63,ESE,112,0.0,4.0,65,0.00,,,0.01,Weather View 32 v70,2013-08-24 00:06:00,
2013-08-23 20:11:00,62.1,48.9,29.63,SSE,157,0.0,4.0,62,0.00,,,0.01,Weather View 32 v70,2013-08-24 00:11:00,
2013-08-23 20:16:00,61.7,49.4,29.63,SSE,157,2.0,4.0,64,0.00,,,0.01,Weather View 32 v70,2013-08-24 00:16:00,
2013-08-23 20:21:00,61.3,49.4,29.63,SSE,157,1.0,4.0,65,0.00,,,0.01,Weather View 32 v70,2013-08-24 00:21:00,
2013-08-23 20:26:00,60.6,48.7,29.63,SE,135,4.0,5.0,65,0.00,,,0.01,Weather View 32 v70,2013-08-24 00:26:00,
2013-08-23 20:31:00,60.4,50.9,29.63,SSE,157,2.0,6.0,71,0.00,,,0.01,Weather View 32 v70,2013-08-24 00:31:00,
2013-08-23 20:36:00,60.3,50.8,29.63,SSE,157,1.0,6.0,71,0.00,,,0.01,Weather View 32 v70,2013-08-24 00:36:00,
2013-08-23 20:41:00,60.6,51.1,29.63,SE,135,1.0,6.0,71,0.00,,,0.01,Weather View 32 v70,2013-08-24 00:41:00,
2013-08-23 20:46:00,60.8,51.3,29.64,SE,135,3.0,6.0,71,0.00,,,0.01,Weather View 32 v70,2013-08-24 00:46:00,
2013-08-23 20:51:00,61.2,50.9,29.64,SSE,157,2.0,6.0,69,0.00,,,0.01,Weather View 32 v70,2013-08-24 00:51:00,
2013-08-23 20:56:00,61.3,51.0,29.64,SSE,157,5.0,6.0,69,0.00,,,0.01,Weather View 32 v70,2013-08-24 00:56:00,
2013-08-23 21:01:00,61.5,50.8,29.64,SE,135,2.0,6.0,68,0.00,,,0.01,Weather View 32 v70,2013-08-24 01:01:00,
2013-08-23 21:06:00,61.4,50.3,29.64,SSE,157,0.0,6.0,67,0.00,,,0.01,Weather View 32 v70,2013-08-24 01:06:00,
2013-08-23 21:11:00,61.3,50.2,29.64,South,180,1.0,6.0,67,0.00,,,0.01,Weather View 32 v70,2013-08-24 01:11:00,
2013-08-23 21:16:00,60.9,49.8,29.64,SSE,157,3.0,6.0,67,0.00,,,0.01,Weather View 32 v70,2013-08-24 01:16:00,
2013-08-23 21:21:00,60.6,51.1,29.64,SE,135,4.0,6.0,71,0.00,,,0.01,Weather View 32 v70,2013-08-24 01:21:00,
2013-08-23 21:26:00,61.1,51.2,29.64,SSE,157,2.0,6.0,70,0.00,,,0.01,Weather View 32 v70,2013-08-24 01:26:00,
2013-08-23 21:31:00,60.8,50.5,29.64,South,180,3.0,6.0,69,0.00,,,0.01,Weather View 32 v70,2013-08-24 01:31:00,
2013-08-23 21:36:00,60.4,50.2,29.64,SSW,202,2.0,6.0,69,0.00,,,0.01,Weather View 32 v70,2013-08-24 01:36:00,
2013-08-23 21:41:00,59.8,51.5,29.64,WSW,247,1.0,6.0,74,0.00,,,0.01,Weather View 32 v70,2013-08-24 01:41:00,
2013-08-23 21:46:00,59.7,49.9,29.64,SSW,202,2.0,6.0,70,0.00,,,0.01,Weather View 32 v70,2013-08-24 01:46:00,
2013-08-23 21:51:00,59.4,49.6,29.64,South,180,2.0,6.0,70,0.00,,,0.01,Weather View 32 v70,2013-08-24 01:51:00,
2013-08-23 21:56:00,59.2,49.8,29.65,South,180,2.0,6.0,71,0.00,,,0.01,Weather View 32 v70,2013-08-24 01:56:00,
2013-08-23 22:01:00,58.9,50.2,29.65,South,180,3.0,6.0,73,0.00,,,0.01,Weather View 32 v70,2013-08-24 02:01:00,
2013-08-23 22:06:00,58.9,50.6,29.65,SSW,202,3.0,6.0,74,0.00,,,0.01,Weather View 32 v70,2013-08-24 02:06:00,
2013-08-23 22:11:00,58.9,51.0,29.65,SSE,157,2.0,6.0,75,0.00,,,0.01,Weather View 32 v70,2013-08-24 02:11:00,
2013-08-23 22:16:00,58.8,50.5,29.65,South,180,3.0,6.0,74,0.00,,,0.01,Weather View 32 v70,2013-08-24 02:16:00,
2013-08-23 22:21:00,58.4,50.8,29.65,South,180,2.0,6.0,76,0.00,,,0.01,Weather View 32 v70,2013-08-24 02:21:00,
2013-08-23 22:26:00,58.2,50.7,29.65,South,180,3.0,6.0,76,0.00,,,0.01,Weather View 32 v70,2013-08-24 02:26:00,
2013-08-23 22:31:00,58.0,50.8,29.65,South,180,3.0,5.0,77,0.00,,,0.01,Weather View 32 v70,2013-08-24 02:31:00,
2013-08-23 22:36:00,57.9,50.4,29.66,SSE,157,2.0,5.0,76,0.00,,,0.01,Weather View 32 v70,2013-08-24 02:36:00,
2013-08-23 22:41:00,57.7,50.9,29.65,South,180,2.0,5.0,78,0.00,,,0.01,Weather View 32 v70,2013-08-24 02:41:00,
2013-08-23 22:46:00,57.6,50.8,29.65,South,180,2.0,5.0,78,0.00,,,0.01,Weather View 32 v70,2013-08-24 02:46:00,
2013-08-23 22:51:00,57.7,51.9,29.66,SSE,157,2.0,5.0,81,0.00,,,0.01,Weather View 32 v70,2013-08-24 02:51:00,
2013-08-23 22:56:00,58.0,52.5,29.66,SSE,157,2.0,5.0,82,0.00,,,0.01,Weather View 32 v70,2013-08-24 02:56:00,
2013-08-23 23:01:00,57.9,51.1,29.66,South,180,2.0,5.0,78,0.00,,,0.01,Weather View 32 v70,2013-08-24 03:01:00,
2013-08-23 23:06:00,57.6,51.1,29.66,SSE,157,2.0,5.0,79,0.00,,,0.01,Weather View 32 v70,2013-08-24 03:06:00,
2013-08-23 23:11:00,57.4,51.3,29.66,SSE,157,3.0,5.0,80,0.00,,,0.01,Weather View 32 v70,2013-08-24 03:11:00,
2013-08-23 23:16:00,57.2,51.7,29.66,South,180,2.0,5.0,82,0.00,,,0.01,Weather View 32 v70,2013-08-24 03:16:00,
2013-08-23 23:21:00,57.0,51.5,29.66,SSE,157,3.0,5.0,82,0.00,,,0.01,Weather View 32 v70,2013-08-24 03:21:00,
2013-08-23 23:26:00,57.1,52.0,29.66,SSE,157,3.0,5.0,83,0.00,,,0.01,Weather View 32 v70,2013-08-24 03:26:00,
2013-08-23 23:31:00,56.8,52.3,29.66,SSE,157,2.0,5.0,85,0.00,,,0.01,Weather View 32 v70,2013-08-24 03:31:00,
2013-08-23 23:36:00,57.0,52.5,29.66,SSE,157,2.0,5.0,85,0.00,,,0.01,Weather View 32 v70,2013-08-24 03:36:00,
2013-08-23 23:41:00,56.9,52.7,29.66,SSE,157,2.0,5.0,86,0.00,,,0.01,Weather View 32 v70,2013-08-24 03:41:00,
2013-08-23 23:46:00,57.1,52.9,29.67,SSE,157,3.0,5.0,86,0.00,,,0.01,Weather View 32 v70,2013-08-24 03:46:00,
2013-08-23 23:51:00,57.2,53.7,29.67,SSE,157,2.0,5.0,88,0.00,,,0.01,Weather View 32 v70,2013-08-24 03:51:00,
2013-08-23 23:56:00,56.8,52.6,29.67,SSE,157,3.0,5.0,86,0.00,,,0.01,Weather View 32 v70,2013-08-24 03:56:00,